| time (UTC) | temp F | wind direction | speed MPH | gust MPH | rain 1hr in | rain 24hr in | rain mn in | humidity % | barometer mb |
| 20260904151703 | 76 | 38 | 0.0 | 0.0 | 0.00 | 0.38 | 0.00 | 100 | 1010.9 |
| 20260904151203 | 76 | 38 | 0.0 | 0.0 | 0.00 | 0.38 | 0.00 | 100 | 1010.8 |
| 20260904150704 | 76 | 68 | 0.0 | 0.0 | 0.00 | 0.38 | 0.00 | 100 | 1010.7 |
| 20260904150203 | 76 | 68 | 0.0 | 0.0 | 0.00 | 0.38 | 0.00 | 100 | 1010.7 |
| 20260904145703 | 75 | 68 | 0.0 | 0.0 | 0.00 | 0.38 | 0.00 | 100 | 1010.7 |
| 20260904145204 | 75 | 68 | 0.0 | 0.0 | 0.00 | 0.38 | 0.00 | 100 | 1010.6 |
| 20260904144703 | 75 | 68 | 0.0 | 0.0 | 0.00 | 0.38 | 0.00 | 100 | 1010.6 |
| 20260904144203 | 75 | 68 | 0.0 | 0.0 | 0.00 | 0.38 | 0.00 | 100 | 1010.5 |
| 20260904143703 | 75 | 68 | 0.0 | 0.0 | 0.00 | 0.38 | 0.00 | 100 | 1010.3 |
| 20260904143203 | 74 | 68 | 0.0 | 0.0 | 0.00 | 0.38 | 0.00 | 100 | 1010.3 |
| 20260904142704 | 74 | 68 | 0.0 | 0.0 | 0.00 | 0.38 | 0.00 | 100 | 1010.3 |
| 20260904142203 | 74 | 68 | 0.0 | 0.0 | 0.00 | 0.38 | 0.00 | 100 | 1010.3 |
| 20260904141703 | 74 | 68 | 0.0 | 0.0 | 0.00 | 0.38 | 0.00 | 100 | 1010.4 |
| 20260904140703 | 74 | 68 | 0.0 | 0.0 | 0.00 | 0.38 | 0.00 | 100 | 1010.4 |
| 20260904140203 | 74 | 68 | 0.0 | 0.0 | 0.00 | 0.38 | 0.00 | 100 | 1010.4 |
| 20260904135703 | 74 | 68 | 0.0 | 0.0 | 0.00 | 0.38 | 0.00 | 100 | 1010.4 |
| 20260904135203 | 73 | 68 | 0.0 | 0.0 | 0.00 | 0.38 | 0.00 | 100 | 1010.3 |
| 20260904134703 | 73 | 68 | 0.0 | 0.0 | 0.00 | 0.38 | 0.00 | 100 | 1010.4 |
| 20260904134203 | 73 | 68 | 0.0 | 0.0 | 0.00 | 0.38 | 0.00 | 100 | 1010.4 |
| 20260904133703 | 73 | 68 | 0.0 | 0.0 | 0.00 | 0.38 | 0.00 | 100 | 1010.4 |
| 20260904133203 | 73 | 68 | 0.0 | 0.0 | 0.00 | 0.38 | 0.00 | 100 | 1010.3 |
| 20260904132703 | 73 | 68 | 0.0 | 0.0 | 0.00 | 0.38 | 0.00 | 100 | 1010.3 |
| 20260904132203 | 73 | 68 | 0.0 | 0.0 | 0.00 | 0.38 | 0.00 | 100 | 1010.2 |
| 20260904131703 | 73 | 40 | 0.0 | 0.0 | 0.00 | 0.38 | 0.00 | 100 | 1010.2 |
| 20260904131203 | 73 | 40 | 0.0 | 0.0 | 0.00 | 0.38 | 0.00 | 100 | 1010.2 |
| 20260904130204 | 72 | 131 | 0.0 | 0.0 | 0.00 | 0.38 | 0.00 | 100 | 1010.1 |
| 20260904125703 | 72 | 198 | 0.0 | 0.0 | 0.00 | 0.38 | 0.00 | 100 | 1010.0 |
| 20260904125203 | 72 | 198 | 0.0 | 0.0 | 0.00 | 0.38 | 0.00 | 100 | 1010.1 |
| 20260904124703 | 72 | 205 | 0.0 | 0.0 | 0.00 | 0.38 | 0.00 | 100 | 1009.9 |
| 20260904124204 | 72 | 205 | 0.0 | 0.0 | 0.00 | 0.38 | 0.00 | 100 | 1009.9 |
| 20260904123703 | 72 | 205 | 0.0 | 0.0 | 0.00 | 0.38 | 0.00 | 100 | 1009.8 |
| 20260904123203 | 72 | 205 | 0.0 | 0.0 | 0.00 | 0.38 | 0.00 | 100 | 1009.8 |
| 20260904122704 | 71 | 205 | 0.0 | 0.0 | 0.00 | 0.38 | 0.00 | 100 | 1009.7 |
| 20260904122204 | 71 | 205 | 0.0 | 0.0 | 0.00 | 0.38 | 0.00 | 100 | 1009.6 |
| 20260904121703 | 71 | 205 | 0.0 | 0.0 | 0.00 | 0.38 | 0.00 | 100 | 1009.5 |
| 20260904121204 | 71 | 205 | 0.0 | 0.0 | 0.00 | 0.38 | 0.00 | 100 | 1009.5 |
| 20260904120704 | 72 | 205 | 0.0 | 0.0 | 0.00 | 0.38 | 0.00 | 100 | 1009.4 |
| 20260904120203 | 72 | 205 | 0.0 | 0.0 | 0.00 | 0.38 | 0.00 | 100 | 1009.6 |
| 20260904115704 | 72 | 205 | 0.0 | 0.0 | 0.00 | 0.38 | 0.00 | 100 | 1009.5 |
| 20260904115204 | 72 | 205 | 0.0 | 0.0 | 0.00 | 0.38 | 0.00 | 100 | 1009.6 |
| 20260904114703 | 72 | 205 | 0.0 | 0.0 | 0.00 | 0.38 | 0.00 | 100 | 1009.4 |
| 20260904113204 | 72 | 205 | 0.0 | 0.0 | 0.00 | 0.38 | 0.00 | 100 | 1009.3 |
| 20260904112703 | 72 | 206 | 0.0 | 0.0 | 0.00 | 0.38 | 0.00 | 100 | 1009.1 |
| 20260904112203 | 72 | 206 | 0.0 | 0.0 | 0.00 | 0.38 | 0.00 | 100 | 1009.2 |
| 20260904111704 | 72 | 206 | 0.0 | 0.0 | 0.00 | 0.38 | 0.00 | 100 | 1009.1 |
| 20260904111203 | 72 | 206 | 0.0 | 0.0 | 0.00 | 0.38 | 0.00 | 100 | 1009.0 |
| 20260904110703 | 72 | 206 | 0.0 | 0.0 | 0.00 | 0.38 | 0.00 | 100 | 1009.0 |
| 20260904110204 | 72 | 206 | 0.0 | 0.0 | 0.00 | 0.38 | 0.00 | 100 | 1009.3 |
| 20260904105703 | 72 | 206 | 0.0 | 0.0 | 0.00 | 0.38 | 0.00 | 100 | 1009.2 |
| 20260904105204 | 72 | 206 | 0.0 | 0.0 | 0.00 | 0.38 | 0.00 | 100 | 1009.1 |
| 20260904104703 | 72 | 206 | 0.0 | 0.0 | 0.00 | 0.38 | 0.00 | 100 | 1009.2 |
| 20260904104203 | 72 | 206 | 0.0 | 0.0 | 0.00 | 0.38 | 0.00 | 100 | 1009.1 |
| 20260904103704 | 72 | 206 | 0.0 | 0.0 | 0.00 | 0.38 | 0.00 | 100 | 1009.0 |
| 20260904101703 | 73 | 206 | 0.0 | 0.0 | 0.00 | 0.38 | 0.00 | 100 | 1009.2 |
| 20260904101203 | 73 | 206 | 0.0 | 0.0 | 0.00 | 0.38 | 0.00 | 100 | 1009.2 |
| 20260904100704 | 73 | 206 | 0.0 | 0.0 | 0.00 | 0.38 | 0.00 | 100 | 1009.1 |
| 20260904100203 | 73 | 206 | 0.0 | 0.0 | 0.00 | 0.38 | 0.00 | 100 | 1009.1 |
| 20260904095204 | 73 | 208 | 0.0 | 0.0 | 0.00 | 0.38 | 0.00 | 100 | 1009.2 |
| 20260904094703 | 73 | 208 | 0.0 | 0.0 | 0.00 | 0.38 | 0.00 | 100 | 1009.1 |
| 20260904094204 | 73 | 208 | 0.0 | 0.0 | 0.00 | 0.38 | 0.00 | 100 | 1009.1 |
| 20260904093704 | 73 | 208 | 0.0 | 0.0 | 0.00 | 0.38 | 0.00 | 100 | 1009.0 |
| 20260904093204 | 73 | 208 | 0.0 | 0.0 | 0.00 | 0.38 | 0.00 | 100 | 1008.9 |
| 20260904092703 | 73 | 208 | 0.0 | 0.0 | 0.00 | 0.38 | 0.00 | 100 | 1008.8 |
| 20260904092203 | 73 | 208 | 0.0 | 0.0 | 0.00 | 0.38 | 0.00 | 100 | 1008.7 |
| 20260904091203 | 74 | 208 | 0.0 | 0.0 | 0.00 | 0.38 | 0.00 | 100 | 1008.6 |
| 20260904090704 | 74 | 208 | 0.0 | 0.0 | 0.00 | 0.38 | 0.00 | 100 | 1008.6 |
| 20260904090204 | 74 | 208 | 0.0 | 0.0 | 0.00 | 0.38 | 0.00 | 100 | 1008.6 |
| 20260904085704 | 74 | 208 | 0.0 | 0.0 | 0.00 | 0.38 | 0.00 | 100 | 1008.5 |
| 20260904085203 | 74 | 208 | 0.0 | 0.0 | 0.00 | 0.38 | 0.00 | 100 | 1008.5 |
| 20260904084703 | 74 | 208 | 0.0 | 0.0 | 0.00 | 0.38 | 0.00 | 100 | 1008.4 |
| 20260904084202 | 74 | 208 | 0.0 | 0.0 | 0.00 | 0.38 | 0.00 | 100 | 1008.5 |
| 20260904083702 | 74 | 208 | 0.0 | 0.0 | 0.00 | 0.38 | 0.00 | 100 | 1008.4 |
| 20260904083202 | 74 | 208 | 0.0 | 0.0 | 0.00 | 0.38 | 0.00 | 100 | 1008.4 |
| 20260904082203 | 74 | 208 | 0.0 | 0.0 | 0.00 | 0.38 | 0.00 | 100 | 1008.4 |
| 20260904081702 | 74 | 208 | 0.0 | 0.0 | 0.00 | 0.38 | 0.00 | 100 | 1008.4 |
| 20260904081202 | 74 | 208 | 0.0 | 0.0 | 0.00 | 0.38 | 0.00 | 100 | 1008.4 |
| 20260904080702 | 74 | 208 | 0.0 | 0.0 | 0.00 | 0.38 | 0.00 | 100 | 1008.4 |
| 20260904080202 | 74 | 208 | 0.0 | 0.0 | 0.00 | 0.38 | 0.00 | 100 | 1008.4 |
| 20260904075202 | 74 | 208 | 0.0 | 0.0 | 0.00 | 0.38 | 0.00 | 100 | 1008.4 |
| 20260904074702 | 74 | 208 | 0.0 | 0.0 | 0.00 | 0.38 | 0.00 | 100 | 1008.4 |
| 20260904074202 | 74 | 208 | 0.0 | 0.0 | 0.00 | 0.38 | 0.00 | 100 | 1008.4 |
| 20260904073703 | 74 | 208 | 0.0 | 0.0 | 0.00 | 0.38 | 0.00 | 100 | 1008.3 |
| 20260904073202 | 74 | 208 | 0.0 | 0.0 | 0.00 | 0.38 | 0.00 | 100 | 1008.3 |
| 20260904072702 | 74 | 208 | 0.0 | 0.0 | 0.00 | 0.38 | 0.00 | 100 | 1008.3 |
| 20260904072202 | 74 | 208 | 0.0 | 0.0 | 0.00 | 0.38 | 0.00 | 100 | 1008.4 |
| 20260904071702 | 74 | 208 | 0.0 | 0.0 | 0.00 | 0.38 | 0.00 | 100 | 1008.5 |
| 20260904070702 | 74 | 208 | 0.0 | 0.0 | 0.00 | 0.38 | 0.00 | 100 | 1008.5 |
| 20260904070202 | 74 | 208 | 0.0 | 0.0 | 0.00 | 0.38 | 0.00 | 100 | 1008.5 |
| 20260904065703 | 74 | 208 | 0.0 | 0.0 | 0.00 | 0.38 | 0.00 | 100 | 1008.5 |
| 20260904065202 | 75 | 208 | 0.0 | 0.0 | 0.00 | 0.38 | 0.00 | 100 | 1008.5 |
| 20260904064203 | 75 | 208 | 0.0 | 0.0 | 0.00 | 0.38 | 0.00 | 100 | 1008.5 |
| 20260904063702 | 75 | 208 | 0.0 | 0.0 | 0.00 | 0.38 | 0.00 | 100 | 1008.6 |
| 20260904062702 | 75 | 208 | 0.0 | 0.0 | 0.00 | 0.38 | 0.00 | 100 | 1008.7 |
| 20260904062202 | 75 | 208 | 0.0 | 0.0 | 0.00 | 0.38 | 0.00 | 100 | 1008.6 |
| 20260904061702 | 75 | 208 | 0.0 | 0.0 | 0.00 | 0.38 | 0.00 | 100 | 1008.6 |
| 20260904061203 | 75 | 208 | 0.0 | 0.0 | 0.00 | 0.38 | 0.00 | 100 | 1008.6 |
| 20260904060702 | 75 | 208 | 0.0 | 0.0 | 0.00 | 0.38 | 0.00 | 100 | 1008.6 |
| 20260904060202 | 76 | 208 | 0.0 | 0.0 | 0.00 | 0.38 | 0.00 | 100 | 1008.6 |
| 20260904055702 | 76 | 208 | 0.0 | 0.0 | 0.00 | 0.38 | 0.00 | 100 | 1008.5 |
| 20260904055202 | 76 | 208 | 0.0 | 0.0 | 0.00 | 0.38 | 0.00 | 100 | 1008.4 |
| 20260904054702 | 76 | 215 | 0.0 | 0.0 | 0.00 | 0.38 | 0.00 | 100 | 1008.4 |
| 20260904054202 | 76 | 215 | 0.0 | 0.0 | 0.00 | 0.38 | 0.00 | 100 | 1008.4 |
| 20260904053703 | 76 | 215 | 0.0 | 0.0 | 0.00 | 0.38 | 0.00 | 100 | 1008.4 |
| 20260904053203 | 76 | 215 | 0.0 | 0.0 | 0.00 | 0.38 | 0.00 | 100 | 1008.4 |
| 20260904052702 | 76 | 215 | 0.0 | 0.0 | 0.00 | 0.38 | 0.00 | 100 | 1008.4 |
| 20260904052202 | 76 | 215 | 0.0 | 0.0 | 0.00 | 0.38 | 0.00 | 100 | 1008.4 |
| 20260904051702 | 76 | 215 | 0.0 | 0.0 | 0.00 | 0.38 | 0.00 | 100 | 1008.4 |
| 20260904051202 | 76 | 215 | 0.0 | 0.0 | 0.00 | 0.38 | 0.00 | 100 | 1008.4 |
| 20260904050702 | 76 | 215 | 0.0 | 0.0 | 0.00 | 0.38 | 0.00 | 100 | 1008.3 |
| 20260904045702 | 76 | 215 | 0.0 | 0.0 | 0.00 | 0.38 | 0.38 | 99 | 1008.3 |
| 20260904045202 | 76 | 218 | 0.0 | 0.0 | 0.00 | 0.38 | 0.38 | 98 | 1008.4 |
| 20260904044702 | 76 | 218 | 0.0 | 0.0 | 0.00 | 0.38 | 0.38 | 97 | 1008.3 |
| 20260904043703 | 76 | 218 | 0.0 | 0.0 | 0.00 | 0.38 | 0.38 | 97 | 1008.3 |
| 20260904043202 | 76 | 221 | 0.0 | 0.0 | 0.00 | 0.38 | 0.38 | 96 | 1008.3 |
| 20260904042702 | 76 | 220 | 0.0 | 0.0 | 0.00 | 0.38 | 0.38 | 96 | 1008.2 |
| 20260904042202 | 76 | 214 | 0.0 | 0.0 | 0.00 | 0.38 | 0.38 | 95 | 1008.1 |
| 20260904041702 | 76 | 214 | 0.0 | 0.0 | 0.00 | 0.38 | 0.38 | 94 | 1008.2 |
| 20260904041202 | 77 | 214 | 0.0 | 0.0 | 0.00 | 0.38 | 0.38 | 94 | 1008.2 |
| 20260904040702 | 77 | 214 | 0.0 | 0.0 | 0.00 | 0.38 | 0.38 | 94 | 1008.2 |
| 20260904035702 | 77 | 213 | 0.0 | 0.0 | 0.00 | 0.38 | 0.38 | 93 | 1008.2 |
| 20260904035203 | 77 | 223 | 0.0 | 0.0 | 0.00 | 0.38 | 0.38 | 92 | 1008.2 |
| 20260904034703 | 77 | 223 | 0.0 | 0.0 | 0.00 | 0.38 | 0.38 | 91 | 1008.3 |
| 20260904034202 | 77 | 209 | 0.0 | 0.0 | 0.00 | 0.38 | 0.38 | 91 | 1008.3 |
| 20260904033702 | 77 | 209 | 0.0 | 0.0 | 0.00 | 0.38 | 0.38 | 90 | 1008.3 |
| 20260904033203 | 77 | 209 | 0.0 | 0.0 | 0.00 | 0.38 | 0.38 | 89 | 1008.3 |
| 20260904032702 | 77 | 210 | 0.0 | 0.0 | 0.00 | 0.38 | 0.38 | 89 | 1008.4 |
| 20260904031702 | 77 | 209 | 0.0 | 0.0 | 0.00 | 0.38 | 0.38 | 88 | 1008.4 |
| 20260904031203 | 77 | 209 | 0.0 | 0.0 | 0.00 | 0.38 | 0.38 | 88 | 1008.4 |
| 20260904030203 | 77 | 209 | 0.0 | 0.0 | 0.00 | 0.38 | 0.38 | 87 | 1008.5 |
| 20260904025702 | 77 | 209 | 0.0 | 0.0 | 0.00 | 0.38 | 0.38 | 86 | 1008.4 |
| 20260904025202 | 77 | 209 | 0.0 | 0.0 | 0.00 | 0.38 | 0.38 | 86 | 1008.4 |
| 20260904024702 | 77 | 209 | 0.0 | 0.0 | 0.00 | 0.38 | 0.38 | 85 | 1008.4 |
| 20260904024202 | 77 | 209 | 0.0 | 0.0 | 0.00 | 0.38 | 0.38 | 85 | 1008.3 |
| 20260904023702 | 78 | 209 | 0.0 | 0.0 | 0.00 | 0.38 | 0.38 | 84 | 1008.4 |
| 20260904023202 | 78 | 209 | 0.0 | 0.0 | 0.00 | 0.38 | 0.38 | 83 | 1008.4 |
| 20260904022703 | 78 | 209 | 0.0 | 0.0 | 0.00 | 0.38 | 0.38 | 83 | 1008.4 |
| 20260904021702 | 78 | 209 | 0.0 | 0.0 | 0.00 | 0.38 | 0.38 | 82 | 1008.4 |
| 20260904020703 | 78 | 209 | 0.0 | 0.0 | 0.00 | 0.38 | 0.38 | 81 | 1008.3 |
| 20260904020202 | 78 | 209 | 0.0 | 0.0 | 0.00 | 0.38 | 0.38 | 81 | 1008.4 |
| 20260904015703 | 78 | 209 | 0.0 | 0.0 | 0.00 | 0.38 | 0.38 | 80 | 1008.3 |
| 20260904015203 | 78 | 209 | 0.0 | 0.0 | 0.00 | 0.38 | 0.38 | 79 | 1008.3 |
| 20260904014703 | 78 | 209 | 0.0 | 0.0 | 0.00 | 0.38 | 0.38 | 79 | 1008.2 |
| 20260904014202 | 79 | 209 | 0.0 | 0.0 | 0.00 | 0.38 | 0.38 | 79 | 1008.2 |
| 20260904011703 | 79 | 209 | 0.0 | 0.0 | 0.00 | 0.38 | 0.38 | 76 | 1007.9 |
| 20260904011203 | 79 | 209 | 0.0 | 0.0 | 0.00 | 0.38 | 0.38 | 75 | 1007.8 |
| 20260904010703 | 80 | 209 | 0.0 | 0.0 | 0.00 | 0.38 | 0.38 | 75 | 1007.8 |
| 20260904010203 | 80 | 209 | 0.0 | 0.0 | 0.00 | 0.38 | 0.38 | 74 | 1007.7 |
| 20260904005703 | 80 | 209 | 0.0 | 0.0 | 0.00 | 0.38 | 0.38 | 74 | 1007.7 |
| 20260904005203 | 80 | 209 | 0.0 | 0.0 | 0.00 | 0.38 | 0.38 | 73 | 1007.6 |
| 20260904004702 | 80 | 209 | 0.0 | 0.0 | 0.00 | 0.38 | 0.38 | 73 | 1007.7 |
| 20260904004203 | 81 | 210 | 0.0 | 0.0 | 0.00 | 0.38 | 0.38 | 72 | 1007.7 |
| 20260904003702 | 81 | 210 | 0.0 | 0.0 | 0.00 | 0.38 | 0.38 | 71 | 1007.7 |
| 20260904003203 | 81 | 210 | 0.0 | 0.0 | 0.00 | 0.38 | 0.38 | 71 | 1007.6 |
| 20260904002703 | 81 | 210 | 0.0 | 0.0 | 0.00 | 0.38 | 0.38 | 71 | 1007.7 |
| 20260904002202 | 82 | 192 | 0.0 | 0.0 | 0.00 | 0.38 | 0.38 | 70 | 1007.7 |
| 20260904001703 | 82 | 234 | 0.0 | 0.0 | 0.00 | 0.38 | 0.38 | 70 | 1007.8 |
| 20260904001202 | 82 | 217 | 0.0 | 0.0 | 0.00 | 0.38 | 0.38 | 69 | 1007.7 |
| 20260904000703 | 82 | 207 | 0.0 | 0.0 | 0.00 | 0.38 | 0.38 | 69 | 1007.8 |
| 20260904000204 | 82 | 206 | 0.0 | 0.0 | 0.00 | 0.38 | 0.38 | 68 | 1007.8 |
| 20260903235704 | 82 | 216 | 0.0 | 0.0 | 0.00 | 0.38 | 0.38 | 68 | 1007.8 |
| 20260903235203 | 82 | 194 | 0.0 | 0.0 | 0.00 | 0.38 | 0.38 | 68 | 1007.8 |
| 20260903234703 | 83 | 213 | 0.0 | 0.0 | 0.00 | 0.38 | 0.38 | 67 | 1007.8 |
| 20260903234203 | 82 | 218 | 0.0 | 0.0 | 0.00 | 0.38 | 0.38 | 67 | 1007.8 |
| 20260903233703 | 83 | 217 | 0.0 | 0.0 | 0.00 | 0.38 | 0.38 | 67 | 1007.9 |
| 20260903233203 | 83 | 202 | 0.0 | 0.0 | 0.00 | 0.38 | 0.38 | 67 | 1007.9 |
| 20260903232702 | 83 | 226 | 0.0 | 0.0 | 0.00 | 0.38 | 0.38 | 67 | 1007.7 |
| 20260903232202 | 83 | 201 | 0.0 | 0.0 | 0.00 | 0.38 | 0.38 | 67 | 1007.6 |
| 20260903231203 | 83 | 238 | 0.0 | 0.0 | 0.00 | 0.38 | 0.38 | 66 | 1007.4 |
| 20260903230703 | 83 | 203 | 0.0 | 0.0 | 0.00 | 0.38 | 0.38 | 66 | 1007.3 |
| 20260903230203 | 83 | 225 | 0.0 | 0.0 | 0.00 | 0.38 | 0.38 | 65 | 1007.1 |
| 20260903225703 | 83 | 242 | 0.0 | 0.0 | 0.00 | 0.38 | 0.38 | 65 | 1007.1 |
| 20260903225202 | 83 | 242 | 0.0 | 0.0 | 0.00 | 0.38 | 0.38 | 65 | 1007.0 |
| 20260903224703 | 83 | 187 | 0.0 | 0.0 | 0.00 | 0.38 | 0.38 | 65 | 1007.1 |
| 20260903223702 | 83 | 159 | 0.0 | 0.0 | 0.00 | 0.38 | 0.38 | 64 | 1007.0 |
| 20260903223203 | 83 | 192 | 0.0 | 0.0 | 0.00 | 0.38 | 0.38 | 64 | 1007.1 |
| 20260903222703 | 83 | 202 | 0.0 | 0.0 | 0.00 | 0.38 | 0.38 | 65 | 1007.1 |
| 20260903221702 | 83 | 141 | 0.0 | 0.0 | 0.00 | 0.38 | 0.38 | 66 | 1007.4 |
| 20260903221202 | 83 | 186 | 0.0 | 0.0 | 0.00 | 0.38 | 0.38 | 67 | 1007.4 |
| 20260903220703 | 83 | 203 | 0.0 | 0.0 | 0.00 | 0.38 | 0.38 | 68 | 1007.4 |
| 20260903220203 | 83 | 233 | 0.0 | 0.0 | 0.00 | 0.38 | 0.38 | 67 | 1007.3 |
| 20260903215703 | 83 | 200 | 0.0 | 0.0 | 0.00 | 0.38 | 0.38 | 67 | 1007.4 |
| 20260903215203 | 83 | 246 | 0.0 | 0.0 | 0.00 | 0.38 | 0.38 | 68 | 1007.5 |
| 20260903214202 | 83 | 225 | 0.0 | 0.0 | 0.00 | 0.38 | 0.38 | 67 | 1007.5 |
| 20260903213703 | 83 | 211 | 0.0 | 0.0 | 0.00 | 0.38 | 0.38 | 67 | 1007.3 |
| 20260903212703 | 83 | 225 | 0.0 | 0.0 | 0.00 | 0.38 | 0.38 | 70 | 1007.4 |
| 20260903212203 | 83 | 249 | 0.0 | 0.0 | 0.00 | 0.38 | 0.38 | 69 | 1007.5 |
| 20260903211203 | 83 | 235 | 0.0 | 0.0 | 0.00 | 0.38 | 0.38 | 70 | 1007.8 |
| 20260903210703 | 83 | 188 | 0.0 | 0.0 | 0.00 | 0.38 | 0.38 | 70 | 1007.8 |
| 20260903210203 | 83 | 218 | 0.0 | 0.0 | 0.00 | 0.38 | 0.38 | 73 | 1007.9 |
| 20260903205703 | 83 | 184 | 0.0 | 0.0 | 0.00 | 0.38 | 0.38 | 76 | 1007.8 |
| 20260903205203 | 82 | 216 | 0.0 | 0.0 | 0.00 | 0.38 | 0.38 | 79 | 1007.9 |
| 20260903204203 | 81 | 193 | 0.0 | 0.0 | 0.00 | 0.38 | 0.38 | 81 | 1007.7 |
| 20260903203702 | 81 | 218 | 0.0 | 0.0 | 0.00 | 0.38 | 0.38 | 81 | 1008.0 |
| 20260903203203 | 81 | 213 | 0.0 | 0.0 | 0.00 | 0.38 | 0.38 | 82 | 1008.0 |
| 20260903202703 | 81 | 210 | 0.0 | 0.0 | 0.00 | 0.38 | 0.38 | 81 | 1007.9 |
| 20260903202203 | 81 | 306 | 0.0 | 0.0 | 0.00 | 0.38 | 0.38 | 83 | 1008.0 |
| 20260903201203 | 82 | 242 | 0.0 | 0.0 | 0.00 | 0.38 | 0.38 | 87 | 1008.2 |
| 20260903200703 | 82 | 237 | 0.0 | 0.0 | 0.00 | 0.38 | 0.38 | 89 | 1008.3 |
| 20260903200203 | 81 | 259 | 0.0 | 0.0 | 0.00 | 0.38 | 0.38 | 91 | 1008.2 |
| 20260903195703 | 81 | 204 | 0.0 | 0.0 | 0.01 | 0.38 | 0.38 | 90 | 1008.2 |
| 20260903195203 | 81 | 213 | 0.0 | 0.0 | 0.13 | 0.38 | 0.38 | 90 | 1008.3 |
| 20260903194703 | 81 | 223 | 0.0 | 0.0 | 0.26 | 0.38 | 0.38 | 95 | 1008.1 |
| 20260903194203 | 81 | 232 | 0.0 | 0.0 | 0.32 | 0.38 | 0.38 | 97 | 1008.2 |
| 20260903193703 | 81 | 212 | 0.0 | 0.0 | 0.37 | 0.38 | 0.38 | 98 | 1008.4 |
| 20260903193203 | 80 | 187 | 0.0 | 0.0 | 0.38 | 0.38 | 0.38 | 98 | 1008.6 |
| 20260903192703 | 79 | 155 | 0.0 | 0.0 | 0.38 | 0.38 | 0.38 | 97 | 1008.6 |
| 20260903192203 | 78 | 155 | 0.0 | 0.0 | 0.38 | 0.38 | 0.38 | 95 | 1008.5 |
| 20260903191203 | 77 | 190 | 0.0 | 0.0 | 0.38 | 0.38 | 0.38 | 89 | 1008.3 |
| 20260903190203 | 77 | 190 | 0.0 | 0.0 | 0.38 | 0.38 | 0.38 | 85 | 1008.3 |
| 20260903185703 | 77 | 207 | 0.0 | 0.0 | 0.37 | 0.37 | 0.37 | 82 | 1008.3 |
| 20260903185203 | 78 | 0 | 0.0 | 0.0 | 0.25 | 0.25 | 0.25 | 81 | 1008.3 |
| 20260903184703 | 78 | 215 | 0.0 | 0.0 | 0.12 | 0.12 | 0.12 | 78 | 1008.5 |
| 20260903183703 | 80 | 173 | 0.0 | 0.0 | 0.01 | 0.01 | 0.01 | 70 | 1008.6 |
| 20260903182703 | 81 | 202 | 0.0 | 0.0 | 0.00 | 0.00 | 0.00 | 67 | 1009.1 |
| 20260903182203 | 82 | 236 | 0.0 | 0.0 | 0.00 | 0.00 | 0.00 | 65 | 1009.2 |
| 20260903181703 | 82 | 228 | 0.0 | 0.0 | 0.00 | 0.00 | 0.00 | 64 | 1009.2 |
| 20260903181203 | 82 | 201 | 0.0 | 0.0 | 0.00 | 0.00 | 0.00 | 64 | 1009.3 |
| 20260903180203 | 82 | 210 | 0.0 | 0.0 | 0.00 | 0.00 | 0.00 | 65 | 1009.2 |
| 20260903175203 | 83 | 206 | 0.0 | 0.0 | 0.00 | 0.00 | 0.00 | 62 | 1009.2 |
| 20260903174703 | 83 | 235 | 0.0 | 0.0 | 0.00 | 0.00 | 0.00 | 62 | 1009.1 |
| 20260903174203 | 83 | 227 | 0.0 | 0.0 | 0.00 | 0.00 | 0.00 | 63 | 1009.1 |
| 20260903173703 | 83 | 212 | 0.0 | 0.0 | 0.00 | 0.00 | 0.00 | 63 | 1009.0 |
| 20260903173203 | 83 | 185 | 0.0 | 0.0 | 0.00 | 0.00 | 0.00 | 64 | 1009.1 |
| 20260903172203 | 83 | 192 | 0.0 | 0.0 | 0.00 | 0.00 | 0.00 | 62 | 1009.4 |
| 20260903171703 | 83 | 220 | 0.0 | 0.0 | 0.00 | 0.00 | 0.00 | 62 | 1009.5 |
| 20260903171203 | 83 | 231 | 0.0 | 0.0 | 0.00 | 0.00 | 0.00 | 62 | 1009.4 |
| 20260903170703 | 83 | 162 | 0.0 | 0.0 | 0.00 | 0.00 | 0.00 | 62 | 1009.5 |
| 20260903170203 | 83 | 246 | 0.0 | 0.0 | 0.00 | 0.00 | 0.00 | 63 | 1009.5 |
| 20260903165703 | 83 | 153 | 0.0 | 0.0 | 0.00 | 0.00 | 0.00 | 63 | 1009.6 |
| 20260903164703 | 82 | 213 | 0.0 | 0.0 | 0.00 | 0.00 | 0.00 | 65 | 1009.6 |
| 20260903164203 | 82 | 246 | 0.0 | 0.0 | 0.00 | 0.00 | 0.00 | 64 | 1009.6 |
| 20260903163703 | 82 | 215 | 0.0 | 0.0 | 0.00 | 0.00 | 0.00 | 66 | 1009.6 |
| 20260903163203 | 82 | 198 | 0.0 | 0.0 | 0.00 | 0.00 | 0.00 | 67 | 1009.7 |
| 20260903162703 | 81 | 236 | 0.0 | 0.0 | 0.00 | 0.00 | 0.00 | 67 | 1009.6 |
| 20260903162203 | 81 | 255 | 0.0 | 0.0 | 0.00 | 0.00 | 0.00 | 71 | 1009.6 |
| 20260903161203 | 80 | 262 | 0.0 | 0.0 | 0.00 | 0.00 | 0.00 | 74 | 1009.5 |
| 20260903155703 | 79 | 229 | 0.0 | 0.0 | 0.00 | 0.00 | 0.00 | 76 | 1009.4 |
| 20260903155203 | 79 | 103 | 0.0 | 0.0 | 0.00 | 0.00 | 0.00 | 77 | 1009.5 |
| 20260903154203 | 79 | 109 | 0.0 | 0.0 | 0.00 | 0.00 | 0.00 | 80 | 1009.6 |
| 20260903153703 | 78 | 0 | 0.0 | 0.0 | 0.00 | 0.00 | 0.00 | 80 | 1009.6 |
| 20260903153203 | 78 | 254 | 0.0 | 0.0 | 0.00 | 0.00 | 0.00 | 81 | 1009.6 |
| 20260903152703 | 78 | 227 | 0.0 | 0.0 | 0.00 | 0.00 | 0.00 | 84 | 1009.7 |
| 20260903152203 | 78 | 223 | 0.0 | 0.0 | 0.00 | 0.00 | 0.00 | 85 | 1009.7 |